Content
SEND FEEDBACK

United States of America Flag

UPI, GUAM


Home > North America > United States > Guam
Elevation: 53 feet     Latitude: 13 34N     Longitude: 144 55E

WEATHER
 
SELECT A DAY
Number of Records: 230,131;   Date Range: 1/1/95 - 3/22/16
 
SHARE

PRINT THIS DATA

[ ← Previous Day ]
WEATHER ALMANAC - MARCH 31, 2014
[ Next Day → ]
[ °C ]   °F
Weather ElementAverageHighLow
Temperature81.8 °F88 °F (2:54 pm)75.9 °F (3:54 am)
Dewpoint72 °F73 °F (1:54 am)69.1 °F (4:54 pm)
Humidity72.5 %87 % (3:54 am)59 % (3:54 pm)
Barometer29.85 in29.89 in (8:54 am)29.80 in (2:54 pm)
Wind Speed7.9 mph15 mph (1:54 pm)
Wind Gust19.6 mph (1:54 pm)
Weather ElementAverage
Visibility10 mi
Wind DirectionENE (67.4 °)

Weather ElementTotal
Precipitation---
Cooling Degree Days17 (Base 65)
Growing Degree Days32 (Base 50)
Averaged from 23 records on March 31, 2014
WEATHER CONDITIONS BREAKOUT
WIND DIRECTION BREAKOUT
WEATHER BY HOUR - MARCH 31, 2014
[ °C ]   °F
Local TimeTemperatureDewpointHumidityBarometerVisibilityWind DirectionWind SpeedGust SpeedPrecipitationEventsConditions
1:54 AM79.0 °F73.0 °F82 %29.87 in10.0 miENE (60°)4.6 mphClear
2:54 AM78.1 °F73.0 °F84 %29.86 in10.0 miENE (70°)3.5 mphClear
3:54 AM75.9 °F72.0 °F87 %29.84 in10.0 miNE (40°)6.9 mphClear
4:54 AM77.0 °F72.0 °F84 %29.86 in10.0 miENE (60°)3.5 mphClear
5:54 AM75.9 °F72.0 °F87 %29.86 in10.0 miCalmClear
6:54 AM78.1 °F73.0 °F84 %29.86 in10.0 miEast (90°)3.5 mphClear
7:54 AM82.0 °F73.0 °F74 %29.88 in10.0 miEast (90°)6.9 mphClear
8:54 AM84.0 °F72.0 °F67 %29.89 in10.0 miENE (70°)8.1 mphPartly Cloudy
9:54 AM84.9 °F72.0 °F65 %29.88 in10.0 miEast (80°)9.2 mph17.3 mphPartly Cloudy
10:54 AM86.0 °F71.1 °F61 %29.88 in10.0 miEast (90°)8.1 mph17.3 mphPartly Cloudy
11:54 AM87.1 °F72.0 °F61 %29.87 in10.0 miESE (110°)10.4 mphClear
12:54 PM87.1 °F72.0 °F61 %29.83 in10.0 miEast (90°)11.5 mphScattered Clouds
1:54 PM87.1 °F72.0 °F61 %29.82 in10.0 miEast (100°)15.0 mph19.6 mphScattered Clouds
2:54 PM88.0 °F73.0 °F61 %29.80 in10.0 miEast (80°)15.0 mphClear
3:54 PM86.0 °F70.0 °F59 %29.80 in10.0 miNE (50°)13.8 mphMostly Cloudy
4:54 PM84.9 °F69.1 °F59 %29.80 in10.0 miEast (80°)11.5 mphPartly Cloudy
5:54 PM82.9 °F72.0 °F69 %29.82 in10.0 miENE (70°)11.5 mphScattered Clouds
6:54 PM82.0 °F72.0 °F71 %29.85 in10.0 miENE (60°)8.1 mphPartly Cloudy
7:54 PM80.1 °F72.0 °F76 %29.86 in10.0 miNE (50°)5.8 mphPartly Cloudy
8:54 PM80.1 °F72.0 °F76 %29.87 in10.0 miENE (60°)6.9 mphPartly Cloudy
9:54 PM80.1 °F72.0 °F76 %29.88 in10.0 miNE (50°)6.9 mphPartly Cloudy
10:54 PM78.1 °F72.0 °F81 %29.88 in10.0 miNE (50°)5.8 mphPartly Cloudy
11:54 PM78.1 °F72.0 °F81 %29.87 in10.0 miNE (50°)5.8 mphPartly Cloudy
Hourly data recorded from PGUM, located miles away from Upi, Guam




STORIES FROM OUR PARTNERS